Weather in Nizhnyaya Manoma

Russia / Khabarovsk Krai     49°19′37″N   136°37′47″E
temp.,
°C
wind,
m/s
gust,
m/s
humid.,
%
clouds,
%
prec.,
mm/h
press.,
hPa
HPBL,
m
27 february, sat
sat2701:00−19ssw3898100 0.1 1033218
04:00−20ssw2598100 0.1 1034125
07:00−22ssw359686 0.0 1035129
10:00−16sw498754 0.0 1033381
13:00−11sw498469 0.0 1031557
16:00−10sw478385 0.0 1028527
19:00−13wsw1191100 0.0 102620
22:00−12ne1193100 0.0 102320
28 february, sun
sun2801:00−11sw1291100 0.0 101967
04:00−7sw41295100 1.3 1016848
07:00−6sw61394100 1.8 1015944
10:00−5sw71391100 2.9 1014715
13:00−5sw71283100 0.0 1014689
16:00−6sw71381100 0.0 1015908
19:00−9sw71470100 0.0 1018792
22:00−13sw5137786 0.0 1021659
1 march, mon
mon101:00−16sw613810 0.0 1022610
04:00−18ssw613820 0.0 1024575
07:00−20ssw6128596 0.0 1026495
10:00−19ssw7118298 0.0 1028690
13:00−15sw7107373 0.0 10271155
16:00−13sw8126641 0.0 10281304
19:00−16sw614752 0.0 1029724
22:00−19sw412821 0.0 1030484
2 march, tue
tue201:00−21ssw412870 0.0 1031366
04:00−23ssw411920 0.0 1031304
07:00−24ssw410940 0.0 1032233
10:00−21ssw59880 0.0 1031394
13:00−17sw47760 0.0 1030856
16:00−16sw367427 0.0 1029905
19:00−20s38912 0.0 1030159
22:00−22s36911 0.0 1032100
3 march, wed
wed301:00−24ssw23920 0.0 103149
04:00−26ssw23930 0.0 103036
07:00−26ssw22920 0.0 103026
10:00−20sw24850 0.0 1029242
13:00−14sw368020 0.0 1025557
16:00−12wsw247759 0.0 1022564
19:00−15n0089100 0.0 102020
22:00−15wsw0089100 0.0 101920